Westerly, RI

4:25 PM EDT on May 22, 2017 (GMT -0400)
Westerly State

Weather History for KWST - May, 2014

Change the Weather History Date:

Monday, May 12, 2014

  Actual Average (KGON) Record (KGON)
Temperature  
Mean Temperature 60 °F -  
Max Temperature 73 °F 66 °F 86 °F (1991)
Min Temperature 48 °F 45 °F 34 °F (1972)
Degree Days  
Heating Degree Days 4    
Growing Degree Days 10 (Base 50)    
Moisture  
Dew Point 47 °F    
Average Humidity 61    
Maximum Humidity 90    
Minimum Humidity 24    
Precipitation  
Precipitation 0.00 in - - ()
Sea Level Pressure  
Sea Level Pressure 30.09 in    
Wind  
Wind Speed 3 mph (SW)    
Max Wind Speed 13 mph    
Max Gust Speed 20 mph    
Visibility 10 miles    
Events      
Averages and records for this station are not official NWS values.
T = Trace of Precipitation, MM = Missing Value Source: NWS Daily Summary

Daily Weather History Graph

Daily Weather History Graph

Search for Another Location

Airport or City:

Trip Planner

Search our weather history database for the weather conditions in past years. The results will help you decide how hot, cold, wet, or windy it might be!

Date:

Astronomy

May. 12, 2014 Rise Set
Actual Time 5:31 AM EDT 7:56 PM EDT
Civil Twilight 5:00 AM EDT 8:27 PM EDT
Nautical Twilight 4:21 AM EDT 9:06 PM EDT
Astronomical Twilight 3:38 AM EDT 9:49 PM EDT
Moon 5:49 PM EDT (5/12) 4:10 AM EDT (5/12)
Length of Visible Light 15h 27m
Length of Day
14h 24m
Waxing Gibbous, 95% of the Moon is Illuminated
May 12
Waxing Gibbous
May 14
Full
May 21
Last Quarter
May 28
New
Jun 5
First Quarter

Hourly Weather History & Observations

Time (EDT) Temp. Dew Point Humidity Pressure Visibility Wind Dir Wind Speed Gust Speed Precip Events Conditions
12:53 AM 53.1 °F 48.0 °F 83% 30.06 in 10.0 mi Calm Calm - N/A   Clear
1:53 AM 51.1 °F 46.9 °F 86% 30.08 in 10.0 mi Calm Calm - N/A   Clear
2:53 AM 48.9 °F 46.0 °F 90% 30.09 in 10.0 mi Calm Calm - N/A   Clear
3:53 AM 50.0 °F 46.0 °F 86% 30.08 in 10.0 mi Calm Calm - N/A   Clear
4:53 AM 53.1 °F 44.1 °F 71% 30.10 in 10.0 mi Calm Calm - N/A   Clear
5:53 AM 50.0 °F 44.1 °F 80% 30.10 in 10.0 mi Calm Calm - N/A   Clear
6:53 AM 55.9 °F 48.9 °F 77% 30.11 in 10.0 mi Calm Calm - N/A   Clear
7:53 AM 64.0 °F 45.0 °F 50% 30.12 in 10.0 mi Calm Calm - N/A   Clear
8:53 AM 71.1 °F 42.1 °F 35% 30.13 in 10.0 mi Calm Calm - N/A   Clear
10:53 AM 72.0 °F 37.9 °F 29% 30.13 in 10.0 mi SSW 8.1 mph - N/A   Clear
11:53 AM 73.0 °F 34.0 °F 24% 30.13 in 10.0 mi SSW 12.7 mph - N/A   Clear
12:53 PM 71.1 °F 41.0 °F 34% 30.11 in 10.0 mi South 9.2 mph - N/A   Clear
1:53 PM 69.1 °F 50.0 °F 51% 30.09 in 10.0 mi South 8.1 mph - N/A   Clear
2:53 PM 71.1 °F 48.9 °F 45% 30.08 in 10.0 mi South 9.2 mph - N/A   Clear
3:53 PM 72.0 °F 48.9 °F 44% 30.06 in 10.0 mi SSW 9.2 mph - N/A   Clear
4:53 PM 68.0 °F 52.0 °F 56% 30.06 in 10.0 mi WSW 6.9 mph - N/A   Clear
5:53 PM 68.0 °F 52.0 °F 56% 30.06 in 10.0 mi SW 12.7 mph 19.6 mph N/A   Clear
7:53 PM 64.9 °F 54.0 °F 68% 30.07 in 10.0 mi WSW 8.1 mph - N/A   Clear
8:53 PM 64.0 °F 54.0 °F 70% 30.07 in 10.0 mi SW 9.2 mph - N/A   Clear
9:53 PM 64.0 °F 55.0 °F 73% 30.07 in 10.0 mi WSW 4.6 mph - N/A   Clear
11:53 PM 62.1 °F 55.0 °F 78% 30.04 in 10.0 mi Calm Calm - N/A   Clear